STARLINK-3874, 52365

Orbit data source: Space-Track

STARLINK-3874, 52365 is a payload satellite owned by SpaceX/Seattle (US) in LEO that was launched on Fri, 29 Apr 2022 UTC via an FALCON 9 launch vehicle from the Air Force Eastern Test Range (AFETR). Payload-class satellites include a variety of spacecraft equipped with specific instruments for various scientific and technological missions. These include communications satellites like Starlink; space stations such as the ISS; scientific satellites like the Hubble; Earth observation satellites from companies like Planet Labs, Umbra, and HawkEye 360; GPS; miniature CubeSats for education and research; and military/defense satellites.

Loading next visibility...
Identifier
52365, 2022-045AL
Orbit
LEO
Country
Flag of USUS
Related business
Manufacturer
SpaceX/Seattle
Mission
Operational Commercial Communications
Bus & Motor
STARLINK, Unknown motor
Mass
297 kg wet, ~275 kg dry
Launch date (UTC)
2022-04-29 (4 years ago)
Launch vehicle
FALCON 9
Launch site
Air Force Eastern Test Range (AFETR)
Object type
Payload
Rocket body
Debris
Shape & HBR
Box + 1 Pan, 10.1 m
Radar Cross Section
11.087 m², Large (>1 m²)

Expand to show TLE details & history
Last TLE update: 8 hours ago

TLE from 8 hours ago
0 STARLINK-3874
1 52365U 22045AL  26119.86398532  .00000451  00000-0  46449-4 0  9998
2 52365  53.2179 319.3868 0001312  76.5137 283.6002 15.08835886223644
Epoch: 2026-04-29T20:44Z
TLE epoch observation values (Epoch: 2026-04-29T20:44:08.331Z)
Latitude
0.00003°
Longitude
150.53327°
Altitude
540.44 km
Speed
7.593 km/s
True Right ascension
21h 17m 32s
True Declination
0° 00' 00"
Sunlit
Object was in daylight at epoch
Visualization orbit readout
Latitude
Unknown
Longitude
Unknown
Altitude
Unknown
Speed
Unknown
Apparent Right ascension
Unknown
Apparent Declination
Unknown
Sunlit
N/A
Visualization observer readout
Local Sidereal Time
12:08:46
Azimuth
Unknown
Elevation
Unknown
Doppler factor
Unknown
Orbital elements
Apogee altitude
540.908 km
Perigee altitude
539.093 km
Semi-major axis
6,918.138 km
Eccentricity
0.00013
Inclination
53.2179°
RAAN
319.3868°
Arg. of periapsis
76.5137°
True anomaly
283.58559°
Mean anomaly
283.6002°
Eccentric anomaly
283.59289°
Mean motion
3.77189 °/min
Orbital period
95.44 mins
BSTAR
0.000046449
Loading maneuver chart data...
Computing Atmospheric mass density...
Loading historical data...
Loading historical data...
Loading historical data...
Loading historical data...
Loading historical data...
Loading historical data...
Loading historical data...

Documentation

Showing up to 5 results
|